Date,TemperatureHighF,TemperatureAvgF,TemperatureLowF,DewpointHighF,DewpointAvgF,DewpointLowF,HumidityHigh,HumidityAvg,HumidityLow,PressureMaxIn,PressureMinIn,WindSpeedMaxMPH,WindSpeedAvgMPH,GustSpeedMaxMPH,PrecipitationSumIn
2013-1-1,76.7,72.8,67.7,65.1,61.9,59.2,80,69,62,30.10,29.96,9,1,19,0.00
2013-1-2,79.3,70.9,62.4,68.7,65.3,59.9,95,83,69,30.00,29.90,8,1,15,0.00
2013-1-3,79.4,73.1,67.1,70.3,67.9,65.0,95,85,71,30.03,29.93,9,0,17,0.02
2013-1-4,79.0,72.2,66.7,72.0,68.7,65.2,96,89,75,30.13,30.01,7,0,12,0.00
2013-1-5,75.7,69.6,66.7,70.4,67.6,65.4,97,94,82,30.15,30.06,7,0,11,0.16
2013-1-6,79.6,74.4,66.7,72.4,70.3,65.5,97,88,78,30.09,29.97,9,1,16,0.01
2013-1-7,74.7,70.8,67.7,69.9,68.4,66.5,96,92,84,30.07,29.97,2,0,14,0.45
2013-1-8,80.6,76.2,71.9,74.2,71.9,70.0,94,87,80,30.10,29.97,6,1,18,0.28
2013-1-9,80.4,77.1,74.8,72.9,71.5,70.0,92,83,78,30.18,30.06,11,2,20,0.00
2013-1-10,79.1,76.5,74.9,70.3,68.0,65.4,82,75,65,30.20,30.09,13,3,20,0.00
2013-1-11,79.1,76.0,74.4,70.4,68.8,67.0,83,79,73,30.15,30.06,12,2,18,0.00
2013-1-12,78.9,75.4,73.4,70.0,68.4,66.1,87,79,72,30.08,30.00,11,2,15,0.01
2013-1-13,79.1,75.5,73.3,69.2,66.9,65.4,81,75,66,30.02,29.97,11,2,16,0.00
2013-1-14,78.5,75.1,72.1,68.3,65.6,63.0,81,73,66,30.07,30.01,9,1,15,0.00
2013-1-15,76.9,74.7,72.3,68.6,67.2,64.2,82,78,74,30.01,29.73,8,1,14,0.00
2013-1-16,79.4,74.5,66.0,70.9,67.9,62.8,92,80,71,29.78,29.68,8,1,18,0.08
2013-1-17,79.1,70.5,61.0,72.0,67.1,55.7,97,89,78,29.72,29.61,17,1,27,0.67
2013-1-18,70.7,63.0,52.4,61.5,54.4,46.7,84,74,64,29.84,29.72,11,2,21,0.00
2013-1-19,71.7,68.2,63.7,67.7,64.1,59.8,96,87,69,29.81,29.68,5,0,12,0.61
2013-1-20,77.1,70.1,64.2,70.0,66.8,63.3,98,90,75,29.69,29.55,5,0,12,0.02
2013-1-21,77.9,71.7,66.2,71.1,67.8,64.7,97,88,77,29.54,29.42,8,0,14,0.01
2013-1-22,74.7,68.3,62.5,64.2,60.0,54.2,95,76,59,29.59,29.41,14,3,21,0.00
2013-1-23,73.4,68.2,61.6,59.0,55.9,53.4,82,65,53,29.63,29.55,7,1,17,0.00
2013-1-24,73.9,65.7,59.9,57.5,54.3,48.4,85,68,51,29.55,29.45,7,1,14,0.00
2013-1-25,75.1,67.2,59.9,62.3,56.5,51.2,81,69,56,29.48,28.51,4,0,15,0.00
2013-1-26,75.8,68.3,60.0,62.1,59.3,53.2,92,74,58,28.48,28.21,8,1,13,0.00
2013-1-27,76.5,70.7,63.5,64.6,61.9,59.1,88,75,60,28.27,28.19,12,2,16,0.00
2013-1-28,78.2,74.7,72.1,67.3,65.1,62.7,79,72,65,28.23,28.15,11,2,18,0.00
2013-1-29,77.5,74.5,73.0,70.1,67.8,65.7,84,80,77,28.14,28.05,10,2,20,0.00
2013-1-30,77.8,74.3,72.1,69.2,67.0,64.2,89,78,71,28.04,27.89,17,3,23,0.00
2013-1-31,72.5,66.7,59.8,70.4,59.8,41.9,96,80,50,28.04,27.84,9,2,25,0.00